Home   Weather   Koror   Past weeks

Flag for Palau Past Weather in Koror, Palau — Yesterday and Last 2 Weeks

Now
79 °F

Partly cloudy.


Feels Like: 83 °F
Forecast: 77 / 85 °F
Wind: No wind

Location: Koror / Palau Island

Current Time: Feb 27, 2017 at 8:28:18 pm

Latest Report: Feb 27, 2017 at 7:50 pm


Visibility: 15 mi

Pressure: 29.83 "Hg

Humidity: 94%

Dew Point: 77 °F

Location of KororLocation

Past Weather in Koror — Graph

°F

Koror Temperature Yesterday

Maximum temperature yesterday: 88 °F (at 11:50 am)
Minimum temperature yesterday: 77 °F (at 9:50 pm)
Average temperature yesterday: 82 °F

High & Low Weather Summary for the Past Weeks

 TemperatureHumidityPressure
High88 °F (Feb 20, 12:55 pm)100% (Feb 14, 2:50 am)29.94 "Hg (Feb 14, 2:50 am)
Low75 °F (Feb 13, 2:53 am)70% (Feb 17, 1:50 pm)29.75 "Hg (Feb 26, 1:52 am)
Average81 °F87%29.85 "Hg
* Reported Feb 12 6:50 pm — Feb 27 6:50 pm, Koror, Weather by CustomWeather, © 2017

Note: Actual official high and low records may vary slightly from our data, if they occured in-between our weather recording intervals... More about our weather records

Advertising

Koror Weather History for the Previous 24 Hours

Scroll right to see more
 ConditionsComfort  
Time TempWeatherWind HumidityBarometerVisibility
6:50 pm
Mon, Feb 27
79 °FOvercast.No wind94%29.81 "Hg14 mi
5:50 pm79 °FCloudy.No wind94%29.79 "Hg14 mi
4:55 pm79 °FMostly cloudy.7 mph94%29.77 "Hg14 mi
3:54 pm79 °FSprinkles. Mostly cloudy.8 mph89%29.77 "Hg14 mi
2:50 pm82 °FSprinkles. Mostly cloudy.10 mph79%29.77 "Hg14 mi
1:50 pm82 °FSprinkles. Mostly cloudy.7 mph79%29.78 "Hg12 mi
12:50 pm88 °FCloudy.12 mph70%29.79 "Hg15 mi
11:50 am86 °FCloudy.10 mph75%29.80 "Hg15 mi
10:54 am86 °FCloudy.12 mph75%29.82 "Hg15 mi
9:50 am86 °FMostly cloudy.10 mph75%29.83 "Hg15 mi
8:50 am84 °FMostly cloudy.9 mph79%29.84 "Hg15 mi
7:52 am82 °FCloudy.8 mph84%29.83 "Hg14 mi
6:53 am81 °FCloudy.7 mph89%29.81 "Hg14 mi
5:54 am81 °FOvercast.5 mph89%29.80 "Hg14 mi
4:55 am81 °FPartly cloudy.8 mph89%29.79 "Hg14 mi
2:52 am79 °FPartly cloudy.8 mph94%29.79 "Hg14 mi
1:50 am79 °FPartly cloudy.6 mph94%29.80 "Hg14 mi
12:54 am79 °FMostly cloudy.5 mph89%29.82 "Hg14 mi
11:50 pm
Sun, Feb 26
77 °FMostly cloudy.3 mph94%29.84 "Hg13 mi
10:50 pm77 °FMostly cloudy.3 mph100%29.85 "Hg13 mi
9:50 pm77 °FSprinkles. Mostly cloudy.7 mph100%29.84 "Hg13 mi
8:54 pm79 °FPartly cloudy.5 mph94%29.84 "Hg14 mi
Weather by CustomWeather, © 2017

See weather overviewHow to use our weather pages